KD9IXX-13 Weather Reports


Display with metric or nautical units.
time (UTC)temp
F
wind
direction
speed
MPH
gust
MPH
rain 1hr
in
rain 24hr
in
rain mn
in
humidity
%
barometer
mb
20260905215502 79 311 0.0 2.0 0.00 0.00 0.00 82 1016.0
20260905214502 79 279 1.0 3.0 0.00 0.00 0.00 82 1016.1
20260905212502 80 54 1.0 4.0 0.00 0.00 0.00 80 1016.0
20260905210001 82 71 3.0 6.0 0.00 0.00 0.00 78 1015.8
20260905205502 82 295 2.0 5.0 0.00 0.00 0.00 78 1016.0
20260905205002 84 292 2.0 4.0 0.00 0.00 0.00 77 1016.0
20260905204502 83 308 3.0 5.0 0.00 0.00 0.00 78 1016.0
20260905203001 84 59 2.0 6.0 0.00 0.00 0.00 76 1016.1
20260905202502 83 316 2.0 4.0 0.00 0.00 0.00 78 1016.1
20260905202002 83 288 2.0 5.0 0.00 0.00 0.00 77 1016.0
20260905201501 83 306 2.0 7.0 0.00 0.00 0.00 77 1016.0
20260905200003 84 19 2.0 4.0 0.00 0.00 0.00 75 1015.8
20260905194502 85 303 1.0 6.0 0.00 0.00 0.00 76 1015.8
20260905193001 85 19 2.0 6.0 0.00 0.00 0.00 75 1015.9
20260905192502 83 42 3.0 4.0 0.00 0.00 0.00 77 1016.3
20260905191002 86 324 3.0 7.0 0.00 0.00 0.00 75 1016.0
20260905190502 86 333 3.0 4.0 0.00 0.00 0.00 73 1016.3
20260905190001 85 22 1.0 7.0 0.00 0.00 0.00 75 1016.0
20260905184001 86 83 1.0 4.0 0.00 0.00 0.00 75 1016.5
20260905183502 84 50 2.0 5.0 0.00 0.00 0.00 76 1016.2
20260905182501 86 309 2.0 5.0 0.00 0.00 0.00 75 1016.2
20260905181502 85 13 2.0 9.0 0.00 0.00 0.00 76 1016.1
20260905181002 85 52 5.0 7.0 0.00 0.00 0.00 75 1016.1
20260905175002 86 350 2.0 4.0 0.00 0.00 0.00 75 1015.9
20260905174502 86 21 2.0 6.0 0.00 0.00 0.00 74 1016.1
20260905174002 87 292 2.0 5.0 0.00 0.00 0.00 73 1015.7
20260905172501 87 74 4.0 6.0 0.00 0.00 0.00 73 1016.1
20260905170502 87 315 3.0 5.0 0.00 0.00 0.00 72 1015.8
20260905165502 87 74 3.0 5.0 0.00 0.00 0.00 73 1016.2
20260905165001 87 326 2.0 5.0 0.00 0.00 0.00 73 1016.3
20260905164502 86 319 2.0 4.0 0.00 0.00 0.00 74 1016.2
20260905164002 86 295 1.0 4.0 0.00 0.00 0.00 77 1016.4
20260905161503 85 302 1.0 6.0 0.00 0.00 0.00 76 1016.6
20260905161002 86 87 4.0 6.0 0.00 0.00 0.00 75 1016.2
20260905155502 86 297 2.0 5.0 0.00 0.00 0.00 79 1016.3
20260905154002 84 334 2.0 9.0 0.00 0.00 0.00 82 1016.1
20260905151502 84 8 1.0 5.0 0.00 0.00 0.00 83 1016.0
20260905150003 85 336 1.0 3.0 0.00 0.00 0.00 83 1015.6
20260905143502 81 284 0.0 3.0 0.00 0.00 0.00 88 1015.8
20260905143002 81 334 3.0 5.0 0.00 0.00 0.00 88 1015.7
20260905142502 81 340 0.0 2.0 0.00 0.00 0.00 89 1015.7
20260905142001 81 329 2.0 3.0 0.00 0.00 0.00 88 1015.6
20260905140502 81 317 2.0 4.0 0.00 0.00 0.00 89 1015.4
20260905140002 81 318 2.0 4.0 0.00 0.00 0.00 88 1015.3
20260905135502 82 288 1.0 2.0 0.00 0.00 0.00 88 1015.5
20260905133002 81 315 1.0 4.0 0.00 0.00 0.00 89 1015.8
20260905132502 81 315 0.0 0.0 0.00 0.00 0.00 89 1015.8
20260905132002 81 329 1.0 4.0 0.00 0.00 0.00 89 1015.7
20260905124502 79 330 0.0 2.0 0.00 0.00 0.00 98 1014.9
20260905124001 78 291 0.0 0.0 0.00 0.00 0.00 99 1014.9
20260905122502 77 294 0.0 0.0 0.00 0.00 0.00 99 1015.0
20260905121502 77 297 0.0 0.0 0.00 0.00 0.00 99 1014.7
20260905115002 76 293 0.0 0.0 0.00 0.00 0.00 99 1014.8
20260905114502 76 293 0.0 0.0 0.00 0.00 0.00 99 1014.2
20260905114001 76 293 0.0 0.0 0.00 0.00 0.00 99 1014.4
20260905110501 76 263 0.0 0.0 0.00 0.00 0.00 99 1014.3
20260905110002 76 280 0.0 0.0 0.00 0.00 0.00 99 1014.4
20260905105002 76 280 0.0 0.0 0.00 0.00 0.00 99 1014.0
20260905103502 76 280 0.0 0.0 0.00 0.00 0.00 99 1014.3
20260905103002 76 280 0.0 0.0 0.00 0.00 0.00 99 1014.4
20260905102501 76 279 0.0 0.0 0.00 0.00 0.00 99 1014.4
20260905101502 76 280 0.0 0.0 0.00 0.00 0.00 99 1014.6
20260905101002 76 280 0.0 0.0 0.00 0.00 0.00 99 1014.5
20260905095002 76 280 0.0 0.0 0.00 0.00 0.00 99 1014.3
20260905094501 76 280 0.0 0.0 0.00 0.00 0.00 99 1014.3
20260905094002 76 280 0.0 0.0 0.00 0.00 0.00 99 1014.1
20260905092502 76 280 0.0 0.0 0.00 0.00 0.00 99 1014.4
20260905092003 77 280 0.0 0.0 0.00 0.00 0.00 99 1014.2
20260905091502 77 280 0.0 0.0 0.00 0.00 0.00 99 1014.5
20260905091002 77 280 0.0 0.0 0.00 0.00 0.00 99 1014.3
20260905084502 77 280 0.0 0.0 0.00 0.00 0.00 99 1014.5
20260905084002 77 280 0.0 0.0 0.00 0.00 0.00 99 1014.5
20260905083502 77 280 0.0 0.0 0.00 0.00 0.00 99 1014.4
20260905083002 77 280 0.0 0.0 0.00 0.00 0.00 99 1014.3
20260905082502 78 280 0.0 0.0 0.00 0.00 0.00 99 1014.5
20260905081502 77 280 0.0 0.0 0.00 0.00 0.00 99 1014.3
20260905080004 77 280 0.0 0.0 0.00 0.00 0.00 99 1014.5
20260905075502 77 280 0.0 0.0 0.00 0.00 0.00 99 1014.3
20260905075001 77 280 0.0 0.0 0.00 0.00 0.00 99 1014.5
20260905073501 77 280 0.0 0.0 0.00 0.00 0.00 99 1014.2
20260905073002 77 280 0.0 0.0 0.00 0.00 0.00 99 1014.0
20260905072501 78 280 0.0 0.0 0.00 0.00 0.00 99 1014.2
20260905071001 78 281 0.0 0.0 0.00 0.00 0.00 99 1014.3
20260905063502 78 280 0.0 0.0 0.00 0.00 0.00 98 1014.7
20260905060002 78 281 0.0 0.0 0.00 0.00 0.00 97 1014.8
20260905055002 78 281 0.0 0.0 0.00 0.00 0.00 96 1014.7
20260905054501 78 281 0.0 0.0 0.00 0.00 0.00 96 1014.8
20260905054002 78 281 0.0 0.0 0.00 0.00 0.00 95 1014.9
20260905053502 79 281 0.0 0.0 0.00 0.00 0.00 95 1014.7
20260905052502 79 281 0.0 0.0 0.00 0.00 0.00 94 1014.9
20260905052001 79 281 0.0 0.0 0.00 0.00 0.00 94 1014.9
20260905051502 80 282 0.0 0.0 0.00 0.00 0.00 93 1014.6
20260905051002 80 282 0.0 0.0 0.00 0.00 0.00 93 1014.7
20260905050002 80 275 0.0 0.0 0.00 0.00 0.00 92 1014.6
20260905044503 80 283 0.0 0.0 0.00 0.00 0.00 93 1014.9
20260905044001 80 284 0.0 0.0 0.00 0.00 0.00 93 1014.8
20260905043502 80 284 0.0 0.0 0.00 0.00 0.00 92 1014.9
20260905042502 81 284 0.0 0.0 0.00 0.00 0.00 91 1014.9
20260905041503 81 284 0.0 0.0 0.00 0.00 0.00 90 1014.7
20260905041002 81 284 0.0 0.0 0.00 0.00 0.00 91 1014.8
20260905035002 80 285 0.0 0.0 0.00 0.00 0.00 93 1015.0
20260905033502 80 285 0.0 0.0 0.00 0.00 0.00 94 1015.1
20260905032002 80 285 0.0 0.0 0.00 0.00 0.00 94 1015.2
20260905031001 80 285 0.0 0.0 0.00 0.00 0.00 94 1015.4
20260905030502 80 285 0.0 0.0 0.00 0.00 0.00 94 1015.2
20260905023001 80 285 0.0 0.0 0.00 0.00 0.00 93 1015.1
20260905022502 80 285 0.0 0.0 0.00 0.00 0.00 93 1014.9
20260905020502 81 285 0.0 0.0 0.00 0.00 0.00 91 1015.0
20260905015501 82 285 0.0 0.0 0.00 0.00 0.00 90 1014.9
20260905013002 82 287 0.0 0.0 0.00 0.00 0.00 89 1014.3
20260905012502 83 287 0.0 0.0 0.00 0.00 0.00 88 1014.3
20260905012002 83 287 0.0 0.0 0.00 0.00 0.00 87 1014.5
20260905011502 83 287 0.0 0.0 0.00 0.00 0.00 87 1014.3
20260905011002 84 288 0.0 0.0 0.00 0.00 0.00 86 1014.3
20260905010502 84 288 0.0 0.0 0.00 0.00 0.00 85 1014.2
20260905005502 85 288 0.0 0.0 0.00 0.00 0.00 83 1014.1
20260905005002 85 278 0.0 0.0 0.00 0.00 0.00 83 1014.2
20260905003002 85 280 0.0 0.0 0.00 0.00 0.00 83 1014.1
20260905002502 86 280 0.0 0.0 0.00 0.00 0.00 82 1014.1
20260905000502 87 281 0.0 0.0 0.00 0.00 0.00 80 1014.2
20260905000002 88 281 0.0 0.0 0.00 0.00 0.00 79 1014.0
20260904234502 89 265 0.0 0.0 0.00 0.00 0.00 77 1014.4
20260904234002 89 285 0.0 0.0 0.00 0.00 0.00 76 1014.2
20260904233002 90 287 1.0 4.0 0.00 0.00 0.00 73 1014.2
20260904232502 91 281 1.0 3.0 0.00 0.00 0.00 73 1014.4
20260904231502 91 267 0.0 3.0 0.00 0.00 0.00 72 1014.4
20260904230002 92 247 2.0 5.0 0.00 0.00 0.00 70 1014.3
20260904225502 92 279 0.0 2.0 0.00 0.00 0.00 72 1014.4
20260904224002 92 263 1.0 5.0 0.00 0.00 0.00 71 1014.0
20260904223002 92 265 3.0 5.0 0.00 0.00 0.00 70 1014.3
20260904222501 93 282 0.0 3.0 0.00 0.00 0.00 70 1014.5
20260904222002 92 267 3.0 5.0 0.00 0.00 0.00 70 1014.1
20260904221502 92 238 1.0 4.0 0.00 0.00 0.00 70 1014.2
20260904221002 92 283 2.0 4.0 0.00 0.00 0.00 70 1014.2
20260904220501 91 267 2.0 3.0 0.00 0.00 0.00 71 1014.1